,,Stat6,,Stat2,,Stat8,,Stat9,,Stat10,,Wind1,,Wind1,
time,status,PA1M_AVG,status,PR1M_SUM,status,RH1M_AVG,status,SR1M_AVG,status,TA1M_AVG,status,W1dAve1m,status,W1sAve1m,
2004-11-21, 00:00:00,VALID,918.389,VALID,0,VALID,99.4115,VALID,-0.0679233,VALID,18.8506,VALID,125,VALID,0,
2004-11-21, 00:01:00,VALID,918.373,VALID,0,VALID,99.6506,VALID,-0.0509425,VALID,18.8829,VALID,125,VALID,0,
2004-11-21, 00:02:00,VALID,918.369,VALID,0,VALID,99.9425,VALID,0,VALID,18.9299,VALID,125,VALID,0,
2004-11-21, 00:03:00,VALID,918.376,VALID,0,VALID,100,VALID,0,VALID,18.9818,VALID,125,VALID,0,
2004-11-21, 00:04:00,VALID,918.38,VALID,0,VALID,100,VALID,0.0169808,VALID,18.991,VALID,125,VALID,0,
2004-11-21, 00:05:00,VALID,918.381,VALID,0,VALID,99.984,VALID,0.0339617,VALID,18.9821,VALID,125,VALID,0.232547,
2004-11-21, 00:06:00,VALID,918.387,VALID,0,VALID,99.9865,VALID,0.0169808,VALID,18.9977,VALID,126,VALID,0.357955,
2004-11-21, 00:07:00,VALID,918.38,VALID,0,VALID,100,VALID,0.0339617,VALID,19.0496,VALID,125,VALID,0.0276989,
2004-11-21, 00:08:00,VALID,918.381,VALID,0,VALID,99.9888,VALID,0.0509425,VALID,19.0494,VALID,126,VALID,0,
2004-11-21, 00:09:00,VALID,918.379,VALID,0,VALID,99.5628,VALID,0.0169808,VALID,18.9848,VALID,125,VALID,0,
2004-11-21, 00:10:00,VALID,918.382,VALID,0,VALID,99.3085,VALID,0.0169808,VALID,18.9401,VALID,126,VALID,0,
2004-11-21, 00:11:00,VALID,918.366,VALID,0,VALID,99.1585,VALID,0,VALID,18.911,VALID,125,VALID,0,
2004-11-21, 00:12:00,VALID,918.348,VALID,0,VALID,99.3505,VALID,0,VALID,18.9046,VALID,125,VALID,0,
2004-11-21, 00:13:00,VALID,918.346,VALID,0,VALID,99.6251,VALID,0.0169808,VALID,18.9272,VALID,125,VALID,0,
2004-11-21, 00:14:00,VALID,918.338,VALID,0,VALID,99.7574,VALID,0,VALID,18.9336,VALID,125,VALID,0,
2004-11-21, 00:15:00,VALID,918.339,VALID,0,VALID,99.8616,VALID,0.0169808,VALID,18.9597,VALID,126,VALID,0,
2004-11-21, 00:16:00,VALID,918.342,VALID,0,VALID,99.8349,VALID,-0.0339617,VALID,18.9627,VALID,125,VALID,0,
2004-11-21, 00:17:00,VALID,918.352,VALID,0,VALID,99.8184,VALID,-0.0849042,VALID,18.9736,VALID,125,VALID,0,
2004-11-21, 00:18:00,VALID,918.339,VALID,0,VALID,99.8985,VALID,-0.101885,VALID,19.0029,VALID,125,VALID,0,
2004-11-21, 00:19:00,VALID,918.333,VALID,0,VALID,99.9786,VALID,-0.0849042,VALID,19.0158,VALID,125,VALID,0,
2004-11-21, 00:20:00,VALID,918.313,VALID,0,VALID,99.9941,VALID,-0.101885,VALID,19.0446,VALID,125,VALID,0,
2004-11-21, 00:21:00,VALID,918.315,VALID,0,VALID,100,VALID,-0.0849042,VALID,19.0995,VALID,125,VALID,0,
2004-11-21, 00:22:00,VALID,918.294,VALID,0,VALID,100,VALID,-0.101885,VALID,19.1547,VALID,125,VALID,0.18892,
2004-11-21, 00:23:00,VALID,918.286,VALID,0,VALID,99.9018,VALID,-0.101885,VALID,19.1254,VALID,125,VALID,0.442336,
2004-11-21, 00:24:00,VALID,918.296,VALID,0,VALID,99.5514,VALID,-0.0849042,VALID,19.0834,VALID,125,VALID,0.401414,
2004-11-21, 00:25:00,VALID,918.296,VALID,0,VALID,99.4636,VALID,-0.101885,VALID,19.0548,VALID,125,VALID,0.39234,
2004-11-21, 00:26:00,VALID,918.303,VALID,0,VALID,99.353,VALID,-0.101885,VALID,19.0349,VALID,125,VALID,0.207508,
2004-11-21, 00:27:00,VALID,918.299,VALID,0,VALID,99.353,VALID,-0.101885,VALID,19.0223,VALID,125,VALID,0.177455,
2004-11-21, 00:28:00,VALID,918.294,VALID,0,VALID,99.2932,VALID,-0.101885,VALID,19.0257,VALID,125,VALID,0.195676,
2004-11-21, 00:29:00,VALID,918.284,VALID,0,VALID,99.0936,VALID,-0.101885,VALID,18.9967,VALID,125,VALID,0.144886,
2004-11-21, 00:30:00,VALID,918.28,VALID,0,VALID,98.8558,VALID,-0.101885,VALID,18.9582,VALID,125,VALID,0.309642,
2004-11-21, 00:31:00,VALID,918.271,VALID,0,VALID,98.6994,VALID,-0.0679233,VALID,18.9127,VALID,126,VALID,0.841206,
2004-11-21, 00:32:00,VALID,918.28,VALID,0,VALID,98.8469,VALID,-0.0169808,VALID,18.873,VALID,133,VALID,1.05877,
2004-11-21, 00:33:00,VALID,918.265,VALID,0,VALID,99.2869,VALID,0.0169808,VALID,18.8725,VALID,134,VALID,1.03125,
2004-11-21, 00:34:00,VALID,918.279,VALID,0,VALID,99.4229,VALID,0,VALID,18.8758,VALID,134,VALID,0.903993,
2004-11-21, 00:35:00,VALID,918.288,VALID,0,VALID,99.6404,VALID,0.0169808,VALID,18.8852,VALID,136,VALID,1.09413,
2004-11-21, 00:36:00,VALID,918.288,VALID,0,VALID,99.7408,VALID,0,VALID,18.8914,VALID,137,VALID,1.06359,
2004-11-21, 00:37:00,VALID,918.294,VALID,0,VALID,99.7065,VALID,0,VALID,18.8852,VALID,146,VALID,0.813802,
2004-11-21, 00:38:00,VALID,918.295,VALID,0,VALID,99.69,VALID,0,VALID,18.8594,VALID,146,VALID,0.818954,
2004-11-21, 00:39:00,VALID,918.276,VALID,0,VALID,99.8032,VALID,0,VALID,18.8335,VALID,147,VALID,0.827363,
2004-11-21, 00:40:00,VALID,918.259,VALID,0,VALID,99.9616,VALID,0,VALID,18.8273,VALID,124,VALID,0.943359,
2004-11-21, 00:41:00,VALID,918.248,VALID,0,VALID,100,VALID,0.0169808,VALID,18.8075,VALID,116,VALID,0.901677,
2004-11-21, 00:42:00,VALID,918.221,VALID,0,VALID,100,VALID,0.0169808,VALID,18.7983,VALID,115,VALID,0.954901,
2004-11-21, 00:43:00,VALID,918.188,VALID,0,VALID,100,VALID,0.0169808,VALID,18.8139,VALID,122,VALID,1.16206,
2004-11-21, 00:44:00,VALID,918.167,VALID,0,VALID,100,VALID,0,VALID,18.8239,VALID,115,VALID,1.14099,
2004-11-21, 00:45:00,VALID,918.134,VALID,0,VALID,100,VALID,0.0169808,VALID,18.8248,VALID,122,VALID,0.925698,
2004-11-21, 00:46:00,VALID,918.118,VALID,0,VALID,100,VALID,0,VALID,18.8209,VALID,112,VALID,0.920058,
2004-11-21, 00:47:00,VALID,918.087,VALID,0,VALID,100,VALID,0.0169808,VALID,18.8112,VALID,108,VALID,0.775476,
2004-11-21, 00:48:00,VALID,918.062,VALID,0,VALID,100,VALID,0,VALID,18.801,VALID,98,VALID,0.859947,
2004-11-21, 00:49:00,VALID,918.046,VALID,0,VALID,100,VALID,0.0339617,VALID,18.7782,VALID,95,VALID,0.790698,
2004-11-21, 00:50:00,VALID,918.031,VALID,0,VALID,100,VALID,0,VALID,18.7401,VALID,80,VALID,0.66543,
2004-11-21, 00:51:00,VALID,918.019,VALID,0,VALID,100,VALID,0.0169808,VALID,18.7044,VALID,101,VALID,0.925781,
2004-11-21, 00:52:00,VALID,918.004,VALID,0,VALID,100,VALID,0.0169808,VALID,18.7146,VALID,99,VALID,1.08539,
2004-11-21, 00:53:00,VALID,918.007,VALID,0,VALID,100,VALID,0,VALID,18.7399,VALID,107,VALID,0.928354,
2004-11-21, 00:54:00,VALID,917.985,VALID,0,VALID,100,VALID,0.0339617,VALID,18.7531,VALID,107,VALID,0.965216,
2004-11-21, 00:55:00,VALID,917.971,VALID,0,VALID,100,VALID,0.0169808,VALID,18.7784,VALID,112,VALID,1.06623,
2004-11-21, 00:56:00,VALID,917.951,VALID,0,VALID,100,VALID,0,VALID,18.7754,VALID,116,VALID,0.756747,
2004-11-21, 00:57:00,VALID,917.928,VALID,0,VALID,100,VALID,0.0169808,VALID,18.7593,VALID,117,VALID,0.894531,
2004-11-21, 00:58:00,VALID,917.898,VALID,0,VALID,100,VALID,0,VALID,18.7399,VALID,117,VALID,0.900923,
2004-11-21, 00:59:00,VALID,917.874,VALID,0,VALID,100,VALID,0.0169808,VALID,18.7561,VALID,117,VALID,1.07846,
2004-11-21, 01:00:00,VALID,917.865,VALID,0,VALID,100,VALID,0.0169808,VALID,18.7722,VALID,116,VALID,1.07241,
2004-11-21, 01:01:00,VALID,917.845,VALID,0,VALID,100,VALID,0,VALID,18.7727,VALID,118,VALID,1.02053,
2004-11-21, 01:02:00,VALID,917.841,VALID,0,VALID,100,VALID,-0.0679233,VALID,18.7768,VALID,126,VALID,1.01914,
2004-11-21, 01:03:00,VALID,917.833,VALID,0,VALID,100,VALID,-0.0849042,VALID,18.7709,VALID,140,VALID,1.25837,
2004-11-21, 01:04:00,VALID,917.817,VALID,0,VALID,100,VALID,-0.0679233,VALID,18.7999,VALID,148,VALID,1.13619,
2004-11-21, 01:05:00,VALID,917.813,VALID,0,VALID,100,VALID,-0.0849042,VALID,18.793,VALID,146,VALID,1.1092,
2004-11-21, 01:06:00,VALID,917.791,VALID,0,VALID,100,VALID,-0.0849042,VALID,18.7771,VALID,140,VALID,1.40473,
2004-11-21, 01:07:00,VALID,917.788,VALID,0,VALID,100,VALID,-0.101885,VALID,18.7579,VALID,144,VALID,1.18359,
2004-11-21, 01:08:00,VALID,917.769,VALID,0,VALID,100,VALID,-0.101885,VALID,18.7286,VALID,142,VALID,1.14676,
2004-11-21, 01:09:00,VALID,917.762,VALID,0,VALID,100,VALID,-0.101885,VALID,18.6994,VALID,142,VALID,1.22697,
2004-11-21, 01:10:00,VALID,917.752,VALID,0,VALID,100,VALID,-0.0849042,VALID,18.68,VALID,137,VALID,1.04383,
2004-11-21, 01:11:00,VALID,917.74,VALID,0,VALID,100,VALID,-0.101885,VALID,18.677,VALID,128,VALID,1.27891,
2004-11-21, 01:12:00,VALID,917.724,VALID,0,VALID,100,VALID,-0.0849042,VALID,18.6703,VALID,121,VALID,0.821911,
2004-11-21, 01:13:00,VALID,917.716,VALID,0,VALID,100,VALID,-0.101885,VALID,18.6802,VALID,103,VALID,1.1044,
2004-11-21, 01:14:00,VALID,917.705,VALID,0,VALID,100,VALID,-0.0849042,VALID,18.6735,VALID,92,VALID,1.14565,
2004-11-21, 01:15:00,VALID,917.707,VALID,0,VALID,100,VALID,-0.0849042,VALID,18.7056,VALID,111,VALID,1.1862,
2004-11-21, 01:16:00,VALID,917.719,VALID,0,VALID,100,VALID,-0.0849042,VALID,18.7383,VALID,93,VALID,0.890434,
2004-11-21, 01:17:00,VALID,917.699,VALID,0,VALID,100,VALID,-0.0679233,VALID,18.7446,VALID,100,VALID,0.746094,
2004-11-21, 01:18:00,VALID,917.706,VALID,0,VALID,100,VALID,-0.0849042,VALID,18.7575,VALID,102,VALID,0.675781,
2004-11-21, 01:19:00,VALID,917.701,VALID,0,VALID,100,VALID,-0.0679233,VALID,18.7893,VALID,81,VALID,0.795015,
2004-11-21, 01:20:00,VALID,917.687,VALID,0,VALID,100,VALID,-0.0849042,VALID,18.8225,VALID,88,VALID,0.78343,
2004-11-21, 01:21:00,VALID,917.664,VALID,0,VALID,100,VALID,-0.0849042,VALID,18.8186,VALID,56,VALID,0.540483,
2004-11-21, 01:22:00,VALID,917.632,VALID,0,VALID,100,VALID,-0.0849042,VALID,18.8059,VALID,46,VALID,0.650343,
2004-11-21, 01:23:00,VALID,917.599,VALID,0,VALID,100,VALID,-0.0339617,VALID,18.8027,VALID,32,VALID,0.735899,
2004-11-21, 01:24:00,VALID,917.557,VALID,0,VALID,100,VALID,-0.0849042,VALID,18.7962,VALID,19,VALID,0.664258,
2004-11-21, 01:25:00,VALID,917.531,VALID,0,VALID,100,VALID,-0.0679233,VALID,18.7962,VALID,19,VALID,0.531795,
2004-11-21, 01:26:00,VALID,917.523,VALID,0,VALID,100,VALID,-0.0509425,VALID,18.7895,VALID,19,VALID,0.205433,
2004-11-21, 01:27:00,VALID,917.505,VALID,0,VALID,100,VALID,-0.0679233,VALID,18.7863,VALID,19,VALID,0.267228,
2004-11-21, 01:28:00,VALID,917.499,VALID,0,VALID,100,VALID,-0.0339617,VALID,18.8221,VALID,17,VALID,0.394531,
2004-11-21, 01:29:00,VALID,917.497,VALID,0,VALID,100,VALID,-0.0509425,VALID,18.8476,VALID,7,VALID,0.380208,
2004-11-21, 01:30:00,VALID,917.508,VALID,0,VALID,100,VALID,-0.0509425,VALID,18.8444,VALID,2,VALID,0.307664,
2004-11-21, 01:31:00,VALID,917.498,VALID,0,VALID,100,VALID,-0.0679233,VALID,18.8216,VALID,2,VALID,0.117969,
2004-11-21, 01:32:00,VALID,917.497,VALID,0,VALID,99.9812,VALID,-0.0339617,VALID,18.8022,VALID,2,VALID,0,
2004-11-21, 01:33:00,VALID,917.471,VALID,0,VALID,99.6989,VALID,-0.0169808,VALID,18.7247,VALID,2,VALID,0.00334821,
2004-11-21, 01:34:00,VALID,917.45,VALID,0,VALID,99.4369,VALID,-0.0509425,VALID,18.6668,VALID,2,VALID,0.225347,
2004-11-21, 01:35:00,VALID,917.433,VALID,0,VALID,99.4789,VALID,-0.0169808,VALID,18.6313,VALID,3,VALID,0.347656,
2004-11-21, 01:36:00,VALID,917.419,VALID,0,VALID,99.6213,VALID,-0.0509425,VALID,18.6089,VALID,3,VALID,0.108373,
2004-11-21, 01:37:00,VALID,917.421,VALID,0,VALID,99.737,VALID,-0.0679233,VALID,18.6253,VALID,3,VALID,0,
2004-11-21, 01:38:00,VALID,917.414,VALID,0,VALID,99.7854,VALID,-0.0509425,VALID,18.6129,VALID,3,VALID,0,
2004-11-21, 01:39:00,VALID,917.423,VALID,0,VALID,99.9853,VALID,-0.101885,VALID,18.6477,VALID,3,VALID,0,
2004-11-21, 01:40:00,VALID,917.425,VALID,0,VALID,99.9766,VALID,-0.0339617,VALID,18.6475,VALID,3,VALID,0.181891,
2004-11-21, 01:41:00,VALID,917.438,VALID,0,VALID,100,VALID,-0.0339617,VALID,18.6601,VALID,3,VALID,0.266183,
2004-11-21, 01:42:00,VALID,917.418,VALID,0,VALID,100,VALID,-0.0849042,VALID,18.6733,VALID,3,VALID,0.213423,
2004-11-21, 01:43:00,VALID,917.411,VALID,0,VALID,100,VALID,-0.0679233,VALID,18.6961,VALID,3,VALID,0.168924,
2004-11-21, 01:44:00,VALID,917.412,VALID,0,VALID,100,VALID,-0.0849042,VALID,18.6989,VALID,3,VALID,0.00800305,
2004-11-21, 01:45:00,VALID,917.4,VALID,0,VALID,100,VALID,-0.0339617,VALID,18.6964,VALID,3,VALID,0,
2004-11-21, 01:46:00,VALID,917.413,VALID,0,VALID,99.9779,VALID,-0.0339617,VALID,18.6313,VALID,3,VALID,0.0541667,
2004-11-21, 01:47:00,VALID,917.417,VALID,0,VALID,100,VALID,-0.0849042,VALID,18.6412,VALID,3,VALID,0.217478,
2004-11-21, 01:48:00,VALID,917.427,VALID,0,VALID,100,VALID,-0.0849042,VALID,18.6475,VALID,3,VALID,0.0369665,
2004-11-21, 01:49:00,VALID,917.424,VALID,0,VALID,100,VALID,-0.0509425,VALID,18.6964,VALID,3,VALID,0,
2004-11-21, 01:50:00,VALID,917.435,VALID,0,VALID,100,VALID,-0.101885,VALID,18.68,VALID,3,VALID,0,
2004-11-21, 01:51:00,VALID,917.432,VALID,0,VALID,100,VALID,-0.0509425,VALID,18.6703,VALID,3,VALID,0,
2004-11-21, 01:52:00,VALID,917.419,VALID,0,VALID,100,VALID,-0.0849042,VALID,18.6541,VALID,3,VALID,0,
2004-11-21, 01:53:00,VALID,917.4,VALID,0,VALID,100,VALID,-0.0679233,VALID,18.6445,VALID,3,VALID,0,
2004-11-21, 01:54:00,VALID,917.388,VALID,0,VALID,100,VALID,-0.0509425,VALID,18.6156,VALID,3,VALID,0.182049,
2004-11-21, 01:55:00,VALID,917.377,VALID,0,VALID,100,VALID,-0.0679233,VALID,18.5831,VALID,28,VALID,0.498547,
2004-11-21, 01:56:00,VALID,917.36,VALID,0,VALID,100,VALID,-0.0339617,VALID,18.5312,VALID,62,VALID,0.638021,
2004-11-21, 01:57:00,VALID,917.352,VALID,0,VALID,100,VALID,-0.0849042,VALID,18.5285,VALID,62,VALID,0.636083,
2004-11-21, 01:58:00,VALID,917.34,VALID,0,VALID,100,VALID,-0.0849042,VALID,18.573,VALID,64,VALID,0.760045,
2004-11-21, 01:59:00,VALID,917.337,VALID,0,VALID,100,VALID,-0.0339617,VALID,18.6315,VALID,66,VALID,0.788504,
2004-11-21, 02:00:00,VALID,917.338,VALID,0,VALID,100,VALID,-0.0339617,VALID,18.6763,VALID,67,VALID,0.713663,
2004-11-21, 02:01:00,VALID,917.323,VALID,0,VALID,100,VALID,-0.0509425,VALID,18.7249,VALID,67,VALID,0.678925,
2004-11-21, 02:02:00,VALID,917.314,VALID,0,VALID,100,VALID,-0.0339617,VALID,18.7729,VALID,67,VALID,0.725731,
2004-11-21, 02:03:00,VALID,917.325,VALID,0,VALID,100,VALID,0,VALID,18.8377,VALID,67,VALID,0.69308,
2004-11-21, 02:04:00,VALID,917.339,VALID,0,VALID,100,VALID,0,VALID,18.8566,VALID,67,VALID,0.606517,
2004-11-21, 02:05:00,VALID,917.354,VALID,0,VALID,100,VALID,0,VALID,18.7697,VALID,69,VALID,0.50465,
2004-11-21, 02:06:00,VALID,917.348,VALID,0,VALID,100,VALID,0,VALID,18.7307,VALID,86,VALID,0.64974,
2004-11-21, 02:07:00,VALID,917.355,VALID,0,VALID,100,VALID,0,VALID,18.7665,VALID,94,VALID,0.792289,
2004-11-21, 02:08:00,VALID,917.345,VALID,0,VALID,100,VALID,0,VALID,18.7697,VALID,105,VALID,0.664253,
2004-11-21, 02:09:00,VALID,917.357,VALID,0,VALID,100,VALID,0,VALID,18.7632,VALID,94,VALID,0.629925,
2004-11-21, 02:10:00,VALID,917.352,VALID,0,VALID,99.737,VALID,-0.0339617,VALID,18.6986,VALID,51,VALID,0.619531,
2004-11-21, 02:11:00,VALID,917.363,VALID,0,VALID,99.97,VALID,0,VALID,18.6927,VALID,86,VALID,0.782203,
2004-11-21, 02:12:00,VALID,917.355,VALID,0,VALID,100,VALID,0,VALID,18.7051,VALID,103,VALID,0.705433,
2004-11-21, 02:13:00,VALID,917.37,VALID,0,VALID,100,VALID,0,VALID,18.7178,VALID,108,VALID,0.709223,
2004-11-21, 02:14:00,VALID,917.352,VALID,0,VALID,100,VALID,-0.0339617,VALID,18.7275,VALID,106,VALID,0.560082,
2004-11-21, 02:15:00,VALID,917.349,VALID,0,VALID,99.8154,VALID,0,VALID,18.6733,VALID,105,VALID,0.278706,
2004-11-21, 02:16:00,VALID,917.337,VALID,0,VALID,99.5844,VALID,-0.0339617,VALID,18.5467,VALID,105,VALID,0.374467,
2004-11-21, 02:17:00,VALID,917.314,VALID,0,VALID,100,VALID,-0.118866,VALID,18.5774,VALID,105,VALID,0.844815,
2004-11-21, 02:18:00,VALID,917.311,VALID,0,VALID,100,VALID,-0.101885,VALID,18.6258,VALID,105,VALID,0.911458,
2004-11-21, 02:19:00,VALID,917.299,VALID,0,VALID,100,VALID,-0.135847,VALID,18.6392,VALID,107,VALID,0.92359,
2004-11-21, 02:20:00,VALID,917.284,VALID,0,VALID,100,VALID,-0.101885,VALID,18.6417,VALID,107,VALID,0.838542,
2004-11-21, 02:21:00,VALID,917.271,VALID,0,VALID,100,VALID,-0.118866,VALID,18.6519,VALID,99,VALID,0.896439,
2004-11-21, 02:22:00,VALID,917.253,VALID,0,VALID,100,VALID,-0.118866,VALID,18.6581,VALID,87,VALID,0.822599,
2004-11-21, 02:23:00,VALID,917.242,VALID,0,VALID,100,VALID,-0.101885,VALID,18.6454,VALID,55,VALID,0.74858,
2004-11-21, 02:24:00,VALID,917.212,VALID,0,VALID,99.9674,VALID,-0.101885,VALID,18.5123,VALID,33,VALID,0.505632,
2004-11-21, 02:25:00,VALID,917.187,VALID,0,VALID,99.7892,VALID,-0.118866,VALID,18.4221,VALID,34,VALID,0.690104,
2004-11-21, 02:26:00,VALID,917.167,VALID,0,VALID,99.9324,VALID,-0.118866,VALID,18.3963,VALID,44,VALID,0.510069,
2004-11-21, 02:27:00,VALID,917.152,VALID,0,VALID,100,VALID,-0.101885,VALID,18.3928,VALID,44,VALID,0.243253,
2004-11-21, 02:28:00,VALID,917.135,VALID,0,VALID,100,VALID,-0.118866,VALID,18.3995,VALID,44,VALID,0.164253,
2004-11-21, 02:29:00,VALID,917.114,VALID,0,VALID,100,VALID,-0.118866,VALID,18.4062,VALID,44,VALID,0.258984,
2004-11-21, 02:30:00,VALID,917.114,VALID,0,VALID,100,VALID,-0.118866,VALID,18.3834,VALID,44,VALID,0.183866,
2004-11-21, 02:31:00,VALID,917.103,VALID,0,VALID,100,VALID,-0.0679233,VALID,18.3829,VALID,44,VALID,0.0632267,
2004-11-21, 02:32:00,VALID,917.09,VALID,0,VALID,100,VALID,-0.0339617,VALID,18.3792,VALID,44,VALID,0,
2004-11-21, 02:33:00,VALID,917.076,VALID,0,VALID,100,VALID,-0.0169808,VALID,18.3795,VALID,44,VALID,0.00093006,
2004-11-21, 02:34:00,VALID,917.055,VALID,0,VALID,100,VALID,0,VALID,18.346,VALID,44,VALID,0,
2004-11-21, 02:35:00,VALID,917.048,VALID,0,VALID,100,VALID,-0.0169808,VALID,18.3529,VALID,44,VALID,0,
2004-11-21, 02:36:00,VALID,917.045,VALID,0,VALID,100,VALID,0,VALID,18.3596,VALID,44,VALID,0.0440848,
2004-11-21, 02:37:00,VALID,917.043,VALID,0,VALID,100,VALID,-0.0509425,VALID,18.3622,VALID,44,VALID,0.287464,
2004-11-21, 02:38:00,VALID,917.072,VALID,0,VALID,100,VALID,-0.0169808,VALID,18.3785,VALID,44,VALID,0.322266,
2004-11-21, 02:39:00,VALID,917.091,VALID,0,VALID,100,VALID,0,VALID,18.3917,VALID,44,VALID,0.219658,
2004-11-21, 02:40:00,VALID,917.097,VALID,0,VALID,100,VALID,-0.0169808,VALID,18.4177,VALID,44,VALID,0.0109012,
2004-11-21, 02:41:00,VALID,917.12,VALID,0,VALID,100,VALID,0,VALID,18.4339,VALID,44,VALID,0,
2004-11-21, 02:42:00,VALID,917.123,VALID,0,VALID,100,VALID,0,VALID,18.4885,VALID,44,VALID,0.000545058,
2004-11-21, 02:43:00,VALID,917.118,VALID,0,VALID,100,VALID,0,VALID,18.563,VALID,46,VALID,0.241461,
2004-11-21, 02:44:00,VALID,917.114,VALID,0,VALID,100,VALID,-0.0509425,VALID,18.6119,VALID,47,VALID,0.272485,
2004-11-21, 02:45:00,VALID,917.082,VALID,0,VALID,100,VALID,-0.0169808,VALID,18.6574,VALID,47,VALID,0.325335,
2004-11-21, 02:46:00,VALID,917.071,VALID,0,VALID,100,VALID,-0.0679233,VALID,18.6991,VALID,47,VALID,0.359557,
2004-11-21, 02:47:00,VALID,917.053,VALID,0,VALID,100,VALID,-0.0509425,VALID,18.7312,VALID,47,VALID,0.365385,
2004-11-21, 02:48:00,VALID,917.048,VALID,0,VALID,100,VALID,-0.0169808,VALID,18.7441,VALID,47,VALID,0.354469,
2004-11-21, 02:49:00,VALID,917.058,VALID,0,VALID,100,VALID,0,VALID,18.7508,VALID,98,VALID,0.294034,
2004-11-21, 02:50:00,VALID,917.061,VALID,0,VALID,100,VALID,-0.0339617,VALID,18.7602,VALID,159,VALID,0.226935,
2004-11-21, 02:51:00,VALID,917.046,VALID,0,VALID,100,VALID,-0.0679233,VALID,18.7369,VALID,164,VALID,0.101172,
2004-11-21, 02:52:00,VALID,917.049,VALID,0,VALID,100,VALID,-0.0339617,VALID,18.7538,VALID,164,VALID,0.417708,
2004-11-21, 02:53:00,VALID,917.026,VALID,0,VALID,100,VALID,-0.0169808,VALID,18.754,VALID,164,VALID,0.216025,
2004-11-21, 02:54:00,VALID,917.016,VALID,0,VALID,100,VALID,-0.0169808,VALID,18.7413,VALID,164,VALID,0.230196,
2004-11-21, 02:55:00,VALID,917.006,VALID,0,VALID,99.9977,VALID,-0.0509425,VALID,18.7056,VALID,164,VALID,0.0635901,
2004-11-21, 02:56:00,VALID,917.001,VALID,0,VALID,100,VALID,-0.0509425,VALID,18.6795,VALID,164,VALID,0.0238281,
2004-11-21, 02:57:00,VALID,917.01,VALID,0,VALID,100,VALID,-0.0169808,VALID,18.686,VALID,164,VALID,0.28125,
2004-11-21, 02:58:00,VALID,917.023,VALID,0,VALID,100,VALID,-0.0509425,VALID,18.6855,VALID,163,VALID,0.21804,
2004-11-21, 02:59:00,VALID,917.031,VALID,0,VALID,100,VALID,-0.0169808,VALID,18.7113,VALID,156,VALID,0.27096,
2004-11-21, 03:00:00,VALID,917.06,VALID,0,VALID,100,VALID,-0.0509425,VALID,18.7279,VALID,151,VALID,0.507631,
2004-11-21, 03:01:00,VALID,917.076,VALID,0,VALID,100,VALID,-0.0169808,VALID,18.7277,VALID,158,VALID,0.555043,
2004-11-21, 03:02:00,VALID,917.111,VALID,0,VALID,100,VALID,0,VALID,18.7275,VALID,165,VALID,0.513393,
2004-11-21, 03:03:00,VALID,917.115,VALID,0,VALID,100,VALID,0.0339617,VALID,18.7208,VALID,165,VALID,0.809338,
2004-11-21, 03:04:00,VALID,917.116,VALID,0,VALID,100,VALID,0.0169808,VALID,18.7466,VALID,166,VALID,0.870046,
2004-11-21, 03:05:00,VALID,917.117,VALID,0,VALID,100,VALID,0,VALID,18.7464,VALID,168,VALID,0.672066,
2004-11-21, 03:06:00,VALID,917.113,VALID,0,VALID,100,VALID,0.0339617,VALID,18.7535,VALID,168,VALID,0.271839,
2004-11-21, 03:07:00,VALID,917.09,VALID,0,VALID,100,VALID,0.0169808,VALID,18.7372,VALID,168,VALID,0.236806,
2004-11-21, 03:08:00,VALID,917.091,VALID,0,VALID,100,VALID,0,VALID,18.7372,VALID,162,VALID,0.39826,
2004-11-21, 03:09:00,VALID,917.071,VALID,0,VALID,100,VALID,0.0339617,VALID,18.7337,VALID,135,VALID,0.512784,
2004-11-21, 03:10:00,VALID,917.047,VALID,0,VALID,100,VALID,0.0169808,VALID,18.6883,VALID,118,VALID,0.521635,
2004-11-21, 03:11:00,VALID,917.032,VALID,0,VALID,100,VALID,0,VALID,18.6793,VALID,108,VALID,0.725038,
2004-11-21, 03:12:00,VALID,917.019,VALID,0,VALID,100,VALID,0.0169808,VALID,18.6758,VALID,106,VALID,0.640447,
2004-11-21, 03:13:00,VALID,917.007,VALID,0,VALID,100,VALID,0.0339617,VALID,18.6721,VALID,108,VALID,0.905678,
2004-11-21, 03:14:01,VALID,916.991,VALID,0,VALID,100,VALID,0.0339617,VALID,18.6922,VALID,117,VALID,0.777158,
2004-11-21, 03:15:00,VALID,916.977,VALID,0,VALID,100,VALID,0,VALID,18.689,VALID,121,VALID,0.896205,
2004-11-21, 03:16:00,VALID,916.965,VALID,0,VALID,100,VALID,0.0169808,VALID,18.7014,VALID,125,VALID,0.793679,
2004-11-21, 03:17:01,VALID,916.96,VALID,0,VALID,100,VALID,0,VALID,18.7217,VALID,130,VALID,0.919969,
2004-11-21, 03:18:01,VALID,916.929,VALID,0,VALID,100,VALID,0.0169808,VALID,18.7307,VALID,125,VALID,0.858259,
2004-11-21, 03:19:01,VALID,916.913,VALID,0,VALID,100,VALID,0.0169808,VALID,18.724,VALID,117,VALID,0.826122,
2004-11-21, 03:20:01,VALID,916.896,VALID,0,VALID,100,VALID,0.0169808,VALID,18.724,VALID,111,VALID,1.09102,
2004-11-21, 03:21:00,VALID,916.893,VALID,0,VALID,100,VALID,0,VALID,18.7268,VALID,104,VALID,1.1849,
2004-11-21, 03:22:00,VALID,916.878,VALID,0,VALID,100,VALID,0,VALID,18.7431,VALID,102,VALID,1.29201,
2004-11-21, 03:23:01,VALID,916.862,VALID,0,VALID,100,VALID,0,VALID,18.727,VALID,98,VALID,1.15825,
2004-11-21, 03:24:00,VALID,916.854,VALID,0,VALID,100,VALID,0.0169808,VALID,18.7175,VALID,106,VALID,1.14281,
2004-11-21, 03:25:00,VALID,916.826,VALID,0,VALID,100,VALID,0,VALID,18.7079,VALID,111,VALID,1.02237,
2004-11-21, 03:26:00,VALID,916.815,VALID,0,VALID,100,VALID,-0.0169808,VALID,18.6984,VALID,110,VALID,0.921512,
2004-11-21, 03:27:00,VALID,916.782,VALID,0,VALID,100,VALID,0.0339617,VALID,18.6753,VALID,124,VALID,0.986378,
2004-11-21, 03:28:00,VALID,916.761,VALID,0,VALID,100,VALID,0,VALID,18.6721,VALID,126,VALID,1.0665,
2004-11-21, 03:29:01,VALID,916.747,VALID,0,VALID,100,VALID,0,VALID,18.6723,VALID,111,VALID,0.997461,
2004-11-21, 03:30:00,VALID,916.735,VALID,0,VALID,100,VALID,0,VALID,18.6696,VALID,117,VALID,0.932351,
2004-11-21, 03:31:00,VALID,916.734,VALID,0,VALID,100,VALID,0.0169808,VALID,18.6527,VALID,109,VALID,0.880766,
2004-11-21, 03:32:00,VALID,916.71,VALID,0,VALID,100,VALID,0,VALID,18.6564,VALID,108,VALID,0.672852,
2004-11-21, 03:33:01,VALID,916.702,VALID,0,VALID,100,VALID,0.0169808,VALID,18.6527,VALID,123,VALID,0.688244,
2004-11-21, 03:34:00,VALID,916.705,VALID,0,VALID,100,VALID,0.0339617,VALID,18.6659,VALID,130,VALID,1.16592,
2004-11-21, 03:35:00,VALID,916.685,VALID,0,VALID,100,VALID,0.0169808,VALID,18.6719,VALID,130,VALID,1.3145,
2004-11-21, 03:36:00,VALID,916.683,VALID,0,VALID,100,VALID,0.0169808,VALID,18.6624,VALID,136,VALID,1.12367,
2004-11-21, 03:37:00,VALID,916.681,VALID,0,VALID,100,VALID,0.0339617,VALID,18.6594,VALID,137,VALID,1.11414,
2004-11-21, 03:38:00,VALID,916.676,VALID,0,VALID,100,VALID,0.0509425,VALID,18.6364,VALID,137,VALID,1.19643,
2004-11-21, 03:39:01,VALID,916.67,VALID,0,VALID,100,VALID,0,VALID,18.617,VALID,143,VALID,1.2877,
2004-11-21, 03:40:01,VALID,916.67,VALID,0,VALID,100,VALID,0.0169808,VALID,18.6304,VALID,146,VALID,1.16444,